Wind_Speed
21 23 26 27 25 23 22 23 24 23 21 22 24 28 29 28 24 20 20 21 19 18 13 12 10 8 7 6 1 9 13 11 22 21 25 28 25 27 31 34 24 22 29 19 24 24 26
20 22 24 27 29 25 24 22 23 24 22 21 21 26 27 26 25 19 20 23 21 22 14 6 7 8 6 2 3 12 10 9 18 24 21 20 25 22 27 27 23 21 24 18 26 27 26
19 20 23 26 29 28 26 24 23 24 23 20 19 24 24 23 22 22 19 23 28 29 21 10 3 5 4 1 5 12 12 10 11 14 7 27 25 21 28 23 23 21 19 19 28 27 26
19 20 22 25 28 29 27 26 24 24 24 22 17 19 22 22 21 21 22 20 21 23 31 18 7 7 9 6 7 7 11 17 14 16 18 29 25 24 27 19 25 21 20 21 27 24 29
18 19 21 23 25 28 28 28 26 25 24 23 18 15 18 20 21 22 24 26 21 17 25 20 14 13 9 11 14 10 11 15 16 23 21 23 23 27 23 22 27 24 21 19 22 24 25
18 18 19 21 23 26 28 30 28 27 26 24 19 12 14 18 20 20 21 24 27 30 26 25 19 15 23 21 18 15 11 15 21 23 26 23 24 29 21 23 21 22 23 17 19 21 20
16 17 18 19 21 22 24 28 30 30 28 26 22 13 10 13 18 21 23 23 23 26 29 28 23 27 27 17 18 8 14 20 22 26 24 16 28 29 23 15 19 20 20 16 15 17 16
15 16 17 18 20 21 22 25 27 30 31 28 25 17 9 7 11 14 18 24 27 21 21 20 20 22 20 18 27 23 27 26 26 22 20 22 23 27 24 13 17 19 18 17 14 15 17
13 15 16 17 18 20 21 22 25 27 30 30 26 20 11 5 3 5 10 13 14 14 17 15 15 14 14 17 22 23 25 22 17 20 17 21 20 24 22 13 12 18 19 18 14 15 14
13 14 15 16 17 19 20 21 23 24 26 28 28 23 15 9 5 6 4 5 8 10 5 15 10 11 9 8 12 12 12 14 16 18 19 16 19 15 25 18 9 13 11 11 7 11 4
13 13 14 15 16 17 19 21 22 23 25 25 27 26 21 12 7 5 6 6 5 5 4 8 12 10 11 6 6 8 5 13 18 9 5 18 12 11 16 23 15 9 9 8 7 10 5
13 13 13 14 15 17 18 21 22 23 24 24 25 26 23 18 11 7 4 5 4 3 4 7 10 10 9 7 5 6 6 11 10 8 17 17 11 10 17 17 12 11 9 6 4 4 1
13 13 13 14 15 16 17 19 21 23 25 24 22 24 23 21 15 11 8 4 3 6 2 6 7 8 9 9 10 8 7 9 8 12 18 11 12 16 15 14 10 10 12 3 2 1 4
13 13 14 14 15 16 16 18 19 21 23 25 24 22 22 20 19 13 10 6 7 5 7 5 6 6 7 7 9 8 6 8 7 8 14 6 6 10 10 10 8 11 8 2 5 2 4
13 13 13 14 15 16 16 17 18 18 20 22 23 20 20 18 17 16 10 8 4 4 5 5 4 4 4 6 6 6 9 6 9 14 2 4 5 10 10 9 9 10 6 3 4 1 2
13 13 13 14 15 15 16 16 17 17 18 19 20 19 18 16 15 12 11 8 6 6 3 2 3 4 4 5 4 5 6 4 5 4 2 4 5 10 11 11 9 9 10 5 5 2 3
13 13 14 14 15 15 15 15 16 16 17 17 18 17 18 16 13 11 8 7 6 4 3 4 3 3 4 4 5 4 3 2 2 1 3 3 1 7 11 8 8 9 9 6 5 3 4
15 16 16 15 16 16 16 15 15 15 15 16 17 16 17 16 14 11 8 6 4 4 4 3 3 3 3 4 4 4 3 1 2 1 2 0 1 2 8 5 8 11 9 10 4 4 4
19 19 17 16 15 16 16 17 15 14 14 14 14 12 14 13 12 12 10 7 5 4 3 3 2 1 2 3 2 3 2 3 4 4 1 2 1 1 1 7 10 12 15 15 14 12 10
23 21 21 19 18 17 17 17 17 16 13 12 12 10 12 8 13 12 11 9 7 6 5 5 4 3 3 2 1 1 1 2 2 1 2 3 4 4 3 3 4 5 9 14 18 12 15
26 25 24 23 22 21 19 18 18 17 16 13 10 9 11 11 11 10 10 9 8 6 6 5 5 6 6 6 6 3 3 4 5 5 5 4 6 7 9 11 15 16 16 17 20 23 24
30 29 28 27 24 22 19 18 18 17 16 15 13 12 11 12 10 10 9 9 7 7 6 6 5 4 5 5 6 8 5 5 7 7 9 10 8 11 13 14 18 22 22 24 27 29 34
36 35 33 32 28 26 22 20 18 18 17 17 15 14 13 13 12 11 9 8 8 8 6 6 7 8 8 7 8 10 11 12 12 10 9 9 7 7 5 8 12 18 15 17 21 22 22
35 34 33 31 28 26 23 22 20 19 19 19 18 17 15 15 14 13 13 13 11 10 10 10 9 9 9 9 10 11 13 16 16 17 17 14 11 9 10 11 2 4 5 7 12 15 15
32 28 27 27 25 23 22 21 20 20 19 20 20 19 19 19 17 16 15 15 15 14 14 13 12 12 11 11 12 10 10 12 13 16 18 17 15 7 5 5 15 15 10 7 7 12 16
30 28 26 22 20 19 18 19 20 20 20 20 21 21 21 20 20 18 16 17 16 16 16 16 16 15 14 13 11 6 4 5 5 5 8 14 15 14 6 4 5 4 5 9 13 11 7
31 35 30 27 24 22 20 19 20 20 19 20 21 21 21 22 22 21 21 20 19 19 20 21 18 17 17 17 17 13 12 13 7 6 6 11 15 21 19 8 9 13 8 7 3 6 21
36 40 31 28 30 27 26 25 22 22 22 20 20 21 21 22 21 23 24 24 24 23 22 21 20 23 21 17 12 12 10 10 10 13 8 8 7 9 12 9 9 9 4 5 15 25 26
41 39 35 35 33 32 32 32 29 25 25 23 22 23 23 23 22 22 21 21 21 21 21 23 24 24 16 10 9 8 10 8 10 8 14 11 15 9 11 5 13 16 15 24 27 34 28
Wind_Direction
37 33 32 29 23 18 14 14 13 11 6 14 12 16 16 13 12 20 22 21 25 33 47 76 84 98 118 150 211 174 186 181 187 183 194 201 191 188 189 180 181 182 191 197 188 190 190
36 32 31 29 24 20 17 14 12 12 8 13 14 20 21 21 21 29 35 37 41 29 23 63 101 117 137 138 146 162 163 177 201 192 173 154 173 173 176 175 176 178 189 190 182 187 188
33 30 28 27 24 21 18 16 13 13 10 10 16 21 27 26 21 34 27 19 16 19 18 14 128 124 124 146 150 162 161 152 166 194 209 162 163 166 166 172 172 177 182 183 184 185 185
28 27 27 26 25 21 20 17 16 14 13 10 19 23 30 34 31 29 26 19 13 5 25 42 119 123 104 74 123 146 141 160 160 169 183 158 155 161 163 167 176 171 175 171 181 183 193
24 23 25 25 24 25 22 21 17 17 15 13 16 26 28 44 44 39 43 45 39 27 24 50 63 88 67 116 122 151 155 155 148 162 165 146 151 162 165 164 166 169 170 175 174 185 190
19 18 22 23 23 26 25 25 20 18 17 13 11 27 35 42 52 51 55 57 52 54 52 60 57 65 68 54 130 137 163 174 160 158 156 152 155 158 169 167 171 176 170 165 174 181 185
13 13 17 19 21 21 23 24 24 20 19 14 10 14 38 48 59 62 63 60 54 51 47 47 59 55 49 56 48 130 140 151 148 141 143 129 153 159 168 172 176 176 178 169 168 184 191
5 8 11 14 16 16 18 20 19 21 20 19 13 10 11 48 72 67 59 54 54 55 59 57 49 55 48 43 76 91 72 109 139 121 120 142 159 163 171 164 163 169 177 175 178 192 206
356 360 6 7 10 12 13 17 19 17 17 17 18 14 9 5 55 46 47 55 52 52 58 62 62 62 45 46 51 74 74 87 92 116 128 142 158 175 177 175 157 157 174 179 184 190 200
346 350 357 359 3 7 7 11 18 18 14 15 16 16 15 17 309 313 329 342 345 351 38 44 54 57 53 49 56 71 96 90 112 123 128 128 148 167 187 193 180 175 176 174 168 179 194
337 338 345 350 355 0 2 3 8 13 15 13 15 15 16 13 2 345 341 339 342 7 41 10 29 38 44 96 88 63 91 124 134 135 127 121 137 138 174 202 204 199 187 189 188 190 193
326 329 334 340 347 353 356 358 1 3 9 13 13 12 14 16 18 8 2 4 24 48 29 27 40 55 57 73 65 89 120 135 120 115 124 117 118 133 153 170 178 188 155 140 144 171 244
315 320 326 331 339 346 350 355 357 360 1 7 11 10 10 13 13 29 24 18 18 62 71 38 45 59 57 64 63 81 120 150 125 126 126 109 110 121 133 150 155 165 156 84 32 341 215
305 311 318 324 330 337 344 348 354 358 359 0 4 8 8 10 14 13 30 32 53 76 94 81 60 49 42 38 47 59 95 112 136 143 135 132 128 133 142 153 161 169 177 135 183 184 259
297 304 311 315 321 328 335 340 346 353 358 357 359 2 5 8 10 14 24 52 86 99 100 96 55 40 27 29 32 51 73 84 108 145 135 137 146 161 160 158 158 180 200 174 89 64 329
293 298 304 308 313 320 325 332 337 346 352 354 357 359 3 10 11 12 22 66 107 102 73 42 61 46 38 33 38 32 34 91 109 53 62 130 142 181 177 178 186 179 181 181 207 134 279
286 293 300 305 307 311 316 322 328 336 345 349 354 357 1 7 8 14 25 61 82 99 64 31 65 92 78 37 31 35 51 99 146 20 44 138 77 187 184 200 199 190 191 195 184 201 161
278 287 295 299 303 307 310 313 318 325 337 342 348 353 357 3 13 11 27 37 40 45 70 77 44 46 72 80 73 45 67 101 204 314 331 79 47 143 203 233 229 225 222 211 212 210 210
272 278 281 287 292 299 303 306 310 314 324 333 343 351 355 358 11 14 19 15 8 10 352 347 6 53 26 25 90 102 109 127 175 205 201 235 341 165 282 253 251 242 241 240 242 252 234
277 279 282 284 288 291 295 298 302 306 314 322 334 340 346 357 1 3 6 8 0 352 344 333 330 328 324 323 25 343 3 142 167 230 238 218 215 229 251 282 285 264 270 256 243 242 245
278 279 281 283 286 290 292 292 295 297 302 309 322 324 332 330 345 352 355 358 0 354 343 338 347 325 321 326 317 282 257 271 282 283 274 262 251 251 268 274 274 273 268 265 258 260 256
272 275 280 282 280 277 280 282 284 289 293 297 304 308 309 317 329 332 335 338 343 347 346 333 325 311 300 286 283 302 294 292 270 259 255 258 269 282 281 283 290 285 280 271 266 264 264
268 275 278 277 278 277 275 271 272 275 279 282 282 286 293 299 306 312 316 317 317 320 321 316 313 313 312 295 289 288 288 286 280 279 284 277 265 287 269 258 280 280 277 259 266 269 276
265 273 276 276 274 274 274 271 267 265 267 271 274 278 282 285 292 296 299 300 300 299 292 297 301 299 298 291 295 289 285 280 272 270 269 266 280 293 292 305 301 280 291 288 294 298 288
260 266 273 274 272 271 273 273 269 267 267 266 268 271 273 279 283 286 288 289 292 293 290 287 292 288 287 284 297 296 287 284 276 265 253 253 254 255 265 274 291 288 279 292 311 316 314
256 256 255 258 265 270 269 271 273 270 268 267 266 267 270 272 276 279 285 285 289 289 286 287 289 286 280 278 284 263 267 279 263 265 251 237 233 227 225 251 247 276 272 298 300 307 342
252 258 254 252 259 264 266 269 274 275 270 269 269 269 269 271 269 275 276 278 282 282 282 288 288 280 279 279 271 259 254 249 251 241 242 226 225 229 228 239 268 264 273 278 295 308 311
251 259 257 263 259 257 264 267 271 270 269 269 269 269 270 270 272 272 272 275 275 274 278 281 281 280 278 265 261 256 247 243 250 245 255 235 221 216 212 223 262 218 204 288 304 309 309
257 257 262 266 265 261 266 266 263 263 263 262 266 270 271 275 274 273 271 272 273 273 273 271 268 271 267 262 247 249 251 258 261 266 262 249 240 245 224 233 294 278 273 297 291 300 293
Height
3144 3140 3136 3132 3127 3124 3120 3117 3112 3107 3102 3098 3094 3088 3081 3075 3070 3066 3061 3056 3052 3048 3045 3042 3040 3040 3041 3041 3042 3043 3046 3049 3052 3055 3059 3063 3068 3074 3080 3086 3092 3097 3103 3108 3114 3118 3123
3146 3142 3138 3133 3129 3125 3121 3117 3113 3108 3103 3098 3095 3090 3084 3078 3073 3069 3064 3060 3055 3051 3047 3045 3043 3042 3042 3043 3042 3043 3047 3050 3053 3057 3060 3059 3070 3076 3083 3089 3094 3099 3104 3110 3114 3118 3123
3147 3143 3139 3135 3131 3126 3122 3118 3113 3109 3104 3099 3096 3092 3086 3082 3076 3072 3067 3062 3056 3053 3050 3046 3044 3044 3042 3045 3044 3045 3048 3051 3054 3059 3062 3065 3071 3078 3085 3090 3095 3100 3105 3110 3114 3118 3121
3148 3145 3141 3137 3133 3128 3123 3118 3114 3109 3105 3100 3097 3094 3089 3085 3079 3074 3071 3066 3060 3056 3051 3045 3046 3045 3046 3046 3047 3049 3051 3053 3055 3059 3063 3068 3074 3079 3087 3090 3097 3101 3106 3109 3113 3116 3120
3149 3146 3142 3139 3135 3130 3125 3120 3115 3110 3105 3100 3097 3095 3092 3088 3083 3078 3073 3069 3065 3062 3057 3053 3052 3050 3050 3048 3050 3052 3054 3057 3060 3061 3065 3071 3077 3082 3089 3092 3096 3100 3104 3108 3112 3116 3119
3150 3148 3144 3140 3136 3132 3127 3122 3117 3112 3107 3101 3097 3095 3094 3091 3087 3083 3078 3074 3071 3068 3062 3059 3057 3058 3055 3054 3053 3053 3055 3058 3059 3065 3071 3075 3080 3084 3091 3093 3095 3099 3104 3109 3112 3117 3120
3151 3149 3146 3142 3138 3134 3130 3125 3119 3114 3109 3104 3099 3096 3094 3092 3090 3087 3084 3080 3080 3076 3070 3066 3066 3063 3062 3061 3057 3055 3059 3059 3064 3068 3073 3077 3082 3086 3092 3096 3099 3103 3107 3111 3115 3118 3122
3152 3149 3146 3143 3139 3136 3131 3127 3122 3117 3111 3106 3101 3097 3095 3094 3092 3090 3088 3085 3082 3082 3078 3076 3073 3071 3069 3066 3064 3064 3063 3066 3070 3073 3076 3082 3085 3089 3094 3098 3101 3104 3108 3112 3115 3118 3121
3152 3149 3147 3144 3141 3137 3133 3128 3124 3120 3115 3109 3103 3098 3096 3095 3093 3091 3090 3088 3086 3086 3084 3082 3080 3078 3077 3076 3073 3071 3071 3073 3075 3078 3082 3085 3090 3093 3097 3100 3102 3105 3109 3112 3115 3117 3120
3152 3150 3147 3144 3141 3137 3134 3130 3126 3122 3117 3112 3107 3101 3097 3095 3095 3092 3091 3089 3088 3088 3087 3089 3085 3084 3083 3081 3081 3080 3081 3082 3082 3084 3086 3089 3092 3096 3099 3101 3104 3106 3110 3113 3115 3118 3120
3152 3150 3147 3145 3142 3138 3135 3131 3127 3123 3119 3114 3109 3104 3099 3094 3094 3093 3093 3090 3089 3089 3091 3092 3089 3087 3085 3085 3085 3085 3085 3086 3089 3089 3090 3093 3095 3096 3100 3103 3105 3108 3111 3114 3116 3118 3120
3152 3150 3148 3145 3142 3139 3136 3132 3129 3125 3121 3116 3111 3106 3102 3098 3095 3094 3092 3090 3091 3092 3093 3095 3093 3090 3089 3088 3088 3088 3088 3091 3091 3091 3093 3095 3098 3099 3100 3104 3108 3110 3113 3115 3117 3119 3121
3151 3150 3147 3145 3143 3140 3137 3133 3130 3127 3122 3118 3113 3109 3103 3100 3098 3094 3093 3092 3092 3091 3098 3098 3095 3094 3092 3092 3092 3091 3091 3092 3093 3095 3096 3099 3099 3101 3103 3106 3109 3111 3114 3116 3122 3123 3121
3150 3149 3147 3145 3142 3140 3137 3134 3131 3127 3123 3119 3116 3112 3107 3103 3099 3096 3094 3095 3093 3097 3096 3097 3097 3097 3096 3095 3095 3094 3094 3094 3094 3095 3098 3099 3104 3104 3106 3108 3110 3112 3114 3114 3123 3124 3118
3149 3148 3146 3144 3142 3139 3137 3135 3131 3128 3124 3120 3117 3114 3111 3106 3102 3098 3097 3095 3097 3098 3098 3099 3099 3098 3098 3097 3097 3096 3096 3097 3098 3098 3100 3100 3102 3104 3106 3108 3111 3112 3114 3116 3116 3118 3118
3147 3146 3144 3143 3141 3139 3137 3134 3131 3128 3124 3121 3118 3115 3112 3108 3105 3102 3100 3097 3098 3099 3099 3099 3099 3100 3099 3099 3099 3098 3098 3099 3100 3101 3101 3101 3102 3104 3105 3108 3110 3110 3113 3115 3115 3120 3122
3144 3143 3142 3141 3139 3137 3136 3133 3131 3127 3124 3122 3119 3116 3114 3110 3107 3105 3102 3100 3100 3100 3100 3101 3099 3099 3100 3100 3100 3100 3101 3102 3102 3102 3102 3103 3104 3106 3107 3107 3108 3110 3110 3112 3114 3115 3115
3140 3139 3139 3138 3137 3136 3134 3132 3130 3127 3124 3122 3120 3118 3115 3113 3111 3107 3105 3103 3102 3102 3101 3101 3101 3100 3099 3099 3099 3101 3102 3102 3102 3103 3103 3103 3103 3104 3106 3107 3107 3108 3109 3110 3111 3112 3111
3135 3135 3134 3134 3133 3133 3132 3131 3129 3126 3124 3122 3119 3118 3116 3114 3112 3109 3108 3107 3105 3104 3103 3103 3102 3102 3101 3100 3100 3099 3100 3102 3103 3103 3103 3104 3105 3105 3106 3108 3106 3106 3107 3109 3109 3109 3108
3131 3132 3131 3130 3129 3129 3129 3128 3127 3124 3122 3121 3120 3118 3116 3114 3112 3111 3110 3109 3108 3106 3105 3104 3103 3103 3103 3102 3100 3100 3100 3100 3101 3103 3104 3104 3104 3105 3105 3106 3106 3105 3105 3106 3106 3106 3103
3126 3126 3126 3125 3125 3125 3125 3124 3123 3123 3121 3121 3119 3117 3116 3114 3112 3111 3110 3109 3108 3107 3107 3106 3105 3105 3104 3104 3103 3102 3101 3101 3101 3101 3102 3103 3101 3102 3103 3102 3101 3101 3102 3101 3100 3101 3099
3119 3120 3120 3121 3120 3119 3119 3119 3119 3119 3119 3119 3118 3116 3114 3112 3112 3111 3110 3109 3108 3108 3108 3106 3105 3105 3104 3103 3103 3102 3102 3102 3102 3100 3100 3100 3100 3100 3099 3098 3097 3095 3095 3095 3094 3093 3091
3112 3112 3113 3114 3114 3115 3114 3113 3114 3114 3115 3114 3114 3113 3113 3111 3109 3109 3109 3108 3107 3107 3107 3106 3105 3105 3105 3104 3103 3102 3101 3101 3100 3100 3100 3100 3098 3097 3095 3094 3093 3091 3087 3087 3088 3088 3088
3106 3106 3106 3107 3107 3108 3108 3108 3108 3109 3110 3111 3110 3110 3110 3108 3108 3107 3106 3106 3105 3105 3105 3105 3104 3103 3104 3102 3102 3101 3100 3099 3098 3097 3097 3097 3098 3099 3095 3092 3092 3085 3084 3084 3084 3083 3082
3098 3099 3100 3101 3101 3101 3102 3103 3103 3103 3104 3105 3106 3106 3105 3104 3105 3105 3104 3103 3103 3102 3102 3102 3102 3101 3100 3100 3100 3098 3096 3094 3092 3092 3092 3093 3095 3096 3095 3093 3088 3083 3082 3082 3080 3081 3080
3091 3093 3094 3095 3095 3096 3096 3097 3098 3098 3099 3099 3100 3100 3100 3100 3100 3100 3101 3100 3099 3099 3099 3098 3098 3097 3097 3096 3096 3095 3095 3092 3090 3089 3088 3089 3091 3093 3092 3092 3088 3082 3081 3080 3079 3079 3078
3084 3086 3087 3088 3089 3090 3091 3092 3093 3093 3093 3094 3094 3095 3094 3094 3094 3094 3095 3095 3095 3096 3095 3094 3094 3094 3093 3092 3091 3090 3089 3090 3088 3086 3085 3085 3086 3087 3088 3087 3082 3079 3079 3078 3080 3082 3075
3075 3078 3079 3081 3083 3084 3085 3086 3087 3088 3089 3089 3089 3088 3088 3088 3089 3088 3088 3089 3089 3090 3090 3091 3091 3089 3088 3088 3088 3087 3084 3084 3083 3082 3081 3083 3082 3082 3084 3086 3079 3076 3077 3079 3077 3072 3071
3067 3068 3071 3073 3074 3076 3078 3078 3080 3081 3082 3083 3084 3083 3083 3083 3084 3083 3082 3083 3083 3083 3084 3083 3086 3085 3085 3085 3084 3082 3082 3081 3080 3080 3079 3081 3080 3079 3078 3075 3075 3074 3072 3070 3067 3067 3064